Location: Newark
(50.0306°N, 2.3272°E)
Time: 08:06:18
(UTC+00:00)

Courier 1B - All Passes

Search period start: 11 December 2019 00:00
Search period end: 21 December 2019 00:00
Orbit: 963 x 1209 km, 28.3° (Epoch: 10 December)

Date Brightness Start Highest point End Pass type
(mag) Time Alt. Az. Time Alt. Az. Time Alt. Az.
11 Dec - 21:02:05 10° S 21:03:40 11° SSE 21:05:15 10° SSE night (unlit)
11 Dec - 22:53:00 10° SSW 22:56:16 13° S 22:59:36 10° SSE night (unlit)
12 Dec - 21:59:37 10° SSW 22:02:46 13° S 22:05:59 10° SSE night (unlit)
12 Dec - 23:54:06 10° SSW 23:55:25 10° SSW 23:56:43 10° S night (unlit)
13 Dec - 21:06:34 10° SSW 21:09:18 12° S 21:12:04 10° SSE night (unlit)
13 Dec - 22:59:34 10° SSW 23:01:55 12° S 23:04:18 10° S night (unlit)
14 Dec - 20:13:59 10° S 20:15:50 11° S 20:17:42 10° SSE visible
14 Dec - 22:05:42 10° SSW 22:08:26 12° S 22:11:12 10° SSE night (unlit)
15 Dec - 21:12:14 10° SSW 21:14:57 12° S 21:17:44 10° SSE visible
16 Dec - 20:19:03 10° SSW 20:21:30 12° S 20:23:59 10° SSE visible
17 Dec - 19:26:19 10° S 19:28:04 11° S 19:29:50 10° SSE visible
17 Dec - 21:18:59 10° SSW 21:20:38 11° S 21:22:18 10° S visible
18 Dec - 20:25:13 10° SSW 20:27:11 11° S 20:29:11 10° SSE visible
19 Dec - 19:31:53 10° SSW 19:33:46 11° S 19:35:40 10° SSE visible
20 Dec - 18:38:59 10° S 18:40:22 11° S 18:41:45 10° SSE visible
